"startDT [UTC]","vpos","CH4 [ppm]","stdev(CH4) [ppm]","CO2 [ppm]","stdev(CO2) [ppm]","H2O_reported [%]","stdev(H2O_reported)","CavityPressure [torr]","CavityTemp [C]","OutletValve","CH4_dry [ppm]","CO2_dry [ppm]","DasTemp [C]","EtalonTemp [C]","WarmBoxTemp [C]","MPVPosition","T_ECpre [C]","T_EC1 [C]","T_EC2 [C]","p_inlet [hPa]","p_in [hPa]","p_out [hPa]","T_inlet [C]","RH_inlet [%]","dwpt_inlet [C]","T_vent [C]","RH_vent [%]","dwpt_vent [C]","flow_vent [l min-1]","flow_inlet [l min-1]","dwpt_sample [C]","T_room [C]"
2015-09-28 00:00:00,3.0,1.88392,0.02467,397.807,0.793,0.1249,0.1929,139.994,45.000,31448.26165,1.88898,398.479,34.088,45.069,45.000,0.00,0.09,-272.74,-272.80,-2,505,-936,18.2,22.6,-3.5,18.4,22.8,-3.2,5.73,2.00,-3.9,25.0
2015-09-28 00:01:00,3.0,1.87673,0.00031,396.971,0.036,0.0250,0.0019,139.999,45.000,31435.36547,1.87716,397.089,34.065,45.069,45.000,0.00,0.09,-272.74,-272.80,-3,505,-936,18.2,22.8,-3.4,18.4,22.9,-3.2,5.73,1.74,-3.9,25.0
2015-09-28 00:02:00,3.0,1.87683,0.00026,397.208,0.107,0.0237,0.0017,140.000,45.000,31431.70894,1.87727,397.316,34.066,45.069,45.000,0.00,0.09,-272.74,-272.79,-4,505,-936,18.2,22.8,-3.4,18.4,23.0,-3.1,5.73,2.12,-3.9,25.0
2015-09-28 00:03:00,3.0,1.87642,0.00040,397.390,0.029,0.0208,0.0020,139.999,45.000,31430.85991,1.87681,397.489,34.063,45.069,45.000,0.00,0.09,-272.73,-272.79,-3,505,-936,18.2,22.6,-3.5,18.4,22.9,-3.2,5.73,1.87,-3.9,25.0
2015-09-28 00:04:00,3.0,1.87652,0.00051,397.463,0.033,0.0173,0.0017,139.999,45.000,31431.13805,1.87684,397.545,34.063,45.069,45.000,0.00,0.09,-272.74,-272.79,-3,505,-936,18.2,22.6,-3.5,18.4,22.8,-3.2,5.73,1.87,-3.9,25.0
2015-09-28 00:05:00,3.0,1.87664,0.00039,397.510,0.031,0.0139,0.0018,140.001,45.000,31430.70825,1.87687,397.576,34.062,45.069,45.000,0.00,0.09,-272.74,-272.79,-4,505,-936,18.3,22.8,-3.3,18.5,23.0,-3.1,5.73,2.11,-3.9,25.1
2015-09-28 00:06:00,3.0,1.87652,0.00037,397.538,0.030,0.0109,0.0016,139.998,45.000,31430.69229,1.87674,397.591,34.051,45.069,45.000,0.00,0.09,-272.73,-272.79,-2,506,-936,18.3,22.9,-3.3,18.5,23.1,-3.0,5.73,1.73,-3.9,25.1
2015-09-28 00:07:00,3.0,1.87674,0.00038,397.537,0.025,0.0089,0.0019,140.000,45.000,31430.64156,1.87691,397.579,34.050,45.069,45.000,0.00,0.09,-272.74,-272.80,-3,506,-936,18.3,22.8,-3.3,18.5,23.1,-3.0,5.73,2.09,-3.2,25.1
2015-09-28 00:08:00,3.0,1.87658,0.00041,397.542,0.032,0.0078,0.0022,140.001,45.000,31431.95660,1.87671,397.579,34.062,45.069,45.000,0.00,0.09,-272.73,-272.80,-4,506,-936,18.3,22.8,-3.3,18.5,23.0,-3.0,5.73,1.91,-2.9,25.1
2015-09-28 00:09:00,3.0,1.87675,0.00036,397.541,0.031,0.0064,0.0023,140.002,45.000,31433.71293,1.87686,397.572,34.080,45.069,45.000,0.00,0.10,-272.73,-272.79,-3,506,-936,18.3,22.7,-3.4,18.5,22.9,-3.0,5.73,1.83,-3.0,25.1
2015-09-28 00:10:00,3.0,1.87682,0.00030,397.549,0.025,0.0055,0.0022,140.000,45.000,31432.94969,1.87692,397.577,34.065,45.068,45.000,0.00,0.09,-272.74,-272.79,-3,506,-936,18.4,22.6,-3.4,18.5,22.9,-3.1,5.73,2.12,-3.1,25.1
2015-09-28 00:11:00,3.0,1.87693,0.00035,397.566,0.034,0.0052,0.0021,140.000,45.000,31433.37654,1.87701,397.590,34.062,45.068,45.000,0.00,0.09,-272.73,-272.79,-4,507,-936,18.4,22.6,-3.3,18.6,22.9,-3.0,5.73,1.75,-3.2,25.2
2015-09-28 00:12:00,3.0,1.87686,0.00032,397.577,0.027,0.0047,0.0017,140.000,45.000,31434.48515,1.87695,397.600,34.059,45.068,45.000,0.00,0.09,-272.74,-272.79,-3,507,-936,18.5,22.6,-3.3,18.6,22.9,-3.0,5.73,2.04,-3.2,25.2
2015-09-28 00:13:00,3.0,1.87707,0.00033,397.574,0.033,0.0033,0.0017,139.999,45.000,31434.76039,1.87714,397.589,34.053,45.068,45.000,0.00,0.09,-272.73,-272.78,-3,507,-936,18.5,22.5,-3.4,18.6,22.8,-3.1,5.73,1.95,-3.3,25.2
2015-09-28 00:14:00,3.0,1.87688,0.00028,397.594,0.022,0.0036,0.0015,140.000,45.000,31437.42653,1.87696,397.611,34.043,45.068,45.000,0.00,0.09,-272.74,-272.80,-4,507,-936,18.5,22.4,-3.4,18.6,22.7,-3.1,5.73,1.80,-3.3,25.2
2015-09-28 00:15:00,3.0,1.87697,0.00032,397.610,0.027,0.0037,0.0018,140.000,45.000,31437.99451,1.87701,397.627,34.061,45.068,45.000,0.00,0.09,-272.73,-272.81,-3,508,-936,18.5,22.3,-3.4,18.7,22.6,-3.1,5.73,2.13,-3.4,25.2
2015-09-28 00:16:00,3.0,1.87693,0.00045,397.588,0.028,0.0028,0.0019,140.000,45.000,31438.76589,1.87698,397.602,34.063,45.068,45.000,0.00,0.10,-272.72,-272.80,-3,508,-936,18.6,22.1,-3.5,18.7,22.5,-3.1,5.73,1.75,-3.4,25.3
2015-09-28 00:17:00,3.0,1.87699,0.00033,397.587,0.024,0.0033,0.0023,139.998,45.000,31440.45282,1.87705,397.602,34.064,45.068,45.000,0.00,0.09,-272.73,-272.79,-4,508,-936,18.6,22.1,-3.5,18.7,22.4,-3.2,5.73,2.03,-3.5,25.3
2015-09-28 00:18:00,3.0,1.87680,0.00036,397.609,0.029,0.0030,0.0022,140.000,45.000,31442.31572,1.87687,397.622,34.065,45.068,45.000,0.00,0.09,-272.73,-272.79,-3,508,-936,18.7,22.3,-3.3,18.7,22.5,-3.1,5.73,1.97,-3.5,25.3
2015-09-28 00:19:00,3.0,1.87700,0.00039,397.603,0.030,0.0024,0.0016,140.001,45.000,31442.85878,1.87703,397.615,34.066,45.068,45.000,0.00,0.10,-272.72,-272.79,-4,508,-936,18.7,22.2,-3.3,18.8,22.6,-3.0,5.73,1.78,-3.5,25.3
2015-09-28 00:20:00,0.0,1.94058,0.02322,397.217,0.433,0.4898,0.2086,140.009,45.000,31534.95151,1.94745,399.536,34.076,45.068,45.000,0.00,0.10,-272.74,-272.81,-6,521,-936,18.7,22.1,-3.4,18.8,22.5,-3.1,5.73,2.10,-3.5,25.3
2015-09-28 00:21:00,0.0,1.94826,0.00093,396.842,0.038,0.6026,0.0041,139.998,45.000,31549.19034,1.95999,399.771,34.072,45.068,45.000,0.00,0.09,-272.73,-272.80,-5,522,-936,18.7,22.0,-3.4,18.9,22.4,-3.1,5.73,1.91,-3.6,25.3
2015-09-28 00:22:00,0.0,1.94767,0.00058,396.814,0.026,0.6035,0.0035,140.000,45.000,31555.53752,1.95948,399.749,34.100,45.069,45.000,0.00,0.10,-272.73,-272.79,-4,522,-936,18.8,21.9,-3.5,18.9,22.3,-3.1,5.73,1.81,-3.6,25.3
2015-09-28 00:23:00,0.0,1.94733,0.00084,396.815,0.025,0.6030,0.0044,139.999,45.000,31558.54903,1.95912,399.747,34.114,45.068,45.000,0.00,0.09,-272.74,-272.79,-5,522,-936,18.8,21.7,-3.5,18.9,22.2,-3.2,5.73,2.11,-3.6,25.4
2015-09-28 00:24:00,0.0,1.94823,0.00068,396.803,0.033,0.6091,0.0056,140.000,45.000,31561.92838,1.96008,399.763,34.113,45.068,45.000,0.00,0.09,-272.74,-272.80,-6,523,-936,18.8,21.9,-3.4,18.9,22.2,-3.1,5.73,1.99,-3.6,25.4
2015-09-28 00:25:00,0.0,1.94810,0.00048,396.835,0.036,0.6081,0.0023,139.999,45.000,31562.57275,1.96000,399.792,34.117,45.068,45.000,0.00,0.10,-272.73,-272.79,-5,523,-936,18.8,21.8,-3.5,18.9,22.3,-3.1,5.73,1.77,-3.6,25.4
2015-09-28 00:26:00,0.0,1.94734,0.00062,396.834,0.033,0.6067,0.0027,140.001,45.000,31565.45011,1.95920,399.786,34.116,45.068,45.000,0.00,0.10,-272.73,-272.78,-5,523,-936,18.8,21.7,-3.5,18.9,22.2,-3.2,5.73,2.07,-3.6,25.4
2015-09-28 00:27:00,0.0,1.94712,0.00055,396.832,0.035,0.6035,0.0033,140.000,45.000,31568.06352,1.95890,399.765,34.101,45.068,45.000,0.00,0.09,-272.74,-272.80,-6,523,-936,18.8,21.6,-3.6,18.9,22.0,-3.2,5.73,2.04,-3.6,25.4
2015-09-28 00:28:00,0.0,1.94782,0.00058,396.805,0.032,0.6084,0.0036,139.998,45.000,31567.17026,1.95972,399.764,34.114,45.068,45.000,0.00,0.09,-272.74,-272.79,-6,524,-936,18.8,21.7,-3.5,18.9,22.1,-3.2,5.73,1.77,-3.7,25.4
2015-09-28 00:29:00,0.0,1.94689,0.00056,396.796,0.036,0.6052,0.0027,139.999,45.000,31571.06917,1.95872,399.738,34.117,45.068,45.000,0.00,0.10,-272.74,-272.79,-5,524,-936,18.8,21.6,-3.6,18.9,22.1,-3.2,5.73,2.03,-3.7,25.4
2015-09-28 00:30:00,0.0,1.94702,0.00056,396.791,0.030,0.6072,0.0031,139.996,45.000,31571.84001,1.95890,399.744,34.106,45.068,45.000,0.00,0.09,-272.73,-272.79,-5,523,-936,18.9,21.7,-3.5,18.9,22.1,-3.2,5.73,2.08,-3.6,25.4
2015-09-28 00:31:00,0.0,1.94664,0.00045,396.795,0.037,0.6075,0.0038,140.000,45.000,31575.82799,1.95847,399.749,34.115,45.069,45.000,0.00,0.09,-272.73,-272.79,-6,523,-936,18.8,21.7,-3.5,19.0,22.0,-3.2,5.73,1.77,-3.7,25.4
2015-09-28 00:32:00,0.0,1.94635,0.00051,396.783,0.029,0.6063,0.0022,140.001,45.000,31578.78826,1.95820,399.730,34.113,45.069,45.000,0.00,0.10,-272.73,-272.78,-6,524,-935,18.8,21.7,-3.6,19.0,22.0,-3.2,5.73,1.98,-3.7,25.4
2015-09-28 00:33:00,0.0,1.94590,0.00067,396.791,0.034,0.6021,0.0036,140.000,45.000,31578.21492,1.95769,399.719,34.098,45.069,45.000,0.00,0.10,-272.73,-272.78,-5,524,-936,18.8,21.5,-3.6,19.0,21.9,-3.2,5.73,2.11,-3.7,25.4
2015-09-28 00:34:00,0.0,1.94547,0.00050,396.758,0.022,0.6033,0.0033,140.000,45.000,31581.05392,1.95724,399.690,34.112,45.069,45.000,0.00,0.10,-272.74,-272.80,-5,524,-936,18.8,21.5,-3.6,19.0,21.8,-3.3,5.73,1.79,-3.7,25.4
2015-09-28 00:35:00,0.0,1.94518,0.00047,396.807,0.043,0.5969,0.0023,139.997,45.000,31578.17655,1.95679,399.707,34.121,45.069,45.000,0.00,0.10,-272.74,-272.79,-6,524,-935,18.8,21.3,-3.7,19.0,21.7,-3.4,5.73,1.95,-3.7,25.4
2015-09-28 00:36:00,0.0,1.94586,0.00046,396.794,0.038,0.6054,0.0039,139.999,45.000,31577.85097,1.95766,399.737,34.123,45.069,45.000,0.00,0.09,-272.73,-272.79,-6,524,-935,18.8,21.6,-3.6,19.0,21.8,-3.3,5.73,2.13,-3.7,25.4
2015-09-28 00:37:00,0.0,1.94598,0.00049,396.786,0.040,0.6076,0.0043,139.999,45.000,31578.02113,1.95781,399.741,34.124,45.068,45.000,0.00,0.30,-271.18,-271.01,-5,524,-935,18.8,21.7,-3.5,19.0,21.9,-3.2,5.43,1.96,-9.9,25.4
2015-09-28 00:38:00,0.0,1.94571,0.00044,396.766,0.028,0.6097,0.0022,140.000,45.000,31578.39857,1.95764,399.731,34.124,45.068,45.000,0.00,0.10,-272.74,-272.80,-5,524,-935,18.8,21.8,-3.5,19.0,22.1,-3.2,5.73,1.90,-3.7,25.5
2015-09-28 00:39:00,0.0,1.94541,0.00049,396.757,0.027,0.6076,0.0032,140.000,45.000,31579.35686,1.95729,399.712,34.125,45.068,45.000,0.00,0.09,-272.74,-272.79,-6,524,-935,18.8,21.7,-3.5,19.0,22.0,-3.2,5.73,2.14,-3.7,25.4
2015-09-28 00:40:00,0.0,1.94496,0.00042,396.751,0.034,0.6028,0.0034,140.000,45.000,31578.97014,1.95671,399.681,34.124,45.068,45.000,0.00,0.10,-272.73,-272.79,-5,524,-935,18.8,21.6,-3.6,19.0,21.9,-3.3,5.73,1.82,-3.7,25.4
2015-09-28 00:41:00,0.0,1.94441,0.00042,396.785,0.037,0.6022,0.0038,140.002,45.000,31582.42381,1.95618,399.711,34.120,45.068,45.000,0.00,0.09,-272.74,-272.80,-5,524,-935,18.8,21.5,-3.7,19.0,21.8,-3.3,5.73,1.89,-3.7,25.4
2015-09-28 00:42:00,0.0,1.94432,0.00049,396.763,0.021,0.6055,0.0036,140.000,45.000,31582.91427,1.95612,399.706,34.125,45.068,45.000,0.00,0.09,-272.73,-272.80,-6,524,-935,18.8,21.6,-3.6,19.0,21.8,-3.3,5.73,2.14,-3.7,25.4
2015-09-28 00:43:00,0.0,1.94395,0.00038,396.757,0.032,0.6039,0.0045,140.001,45.000,31585.18181,1.95571,399.693,34.125,45.069,45.000,0.00,0.09,-272.73,-272.79,-6,524,-935,18.8,21.6,-3.6,19.0,21.9,-3.3,5.73,1.85,-3.7,25.4
2015-09-28 00:44:00,0.0,1.94411,0.00040,396.758,0.037,0.6037,0.0032,139.999,45.000,31583.98525,1.95588,399.692,34.124,45.068,45.000,0.00,0.10,-272.73,-272.79,-5,524,-935,18.8,21.5,-3.6,19.0,21.8,-3.3,5.73,1.85,-3.7,25.5
2015-09-28 00:45:00,0.0,1.94375,0.00035,396.775,0.035,0.6023,0.0044,140.003,45.000,31585.50169,1.95551,399.703,34.126,45.068,45.000,0.00,0.09,-272.75,-272.78,-5,524,-935,18.9,21.5,-3.6,19.0,21.7,-3.3,5.73,2.14,-3.7,25.4
2015-09-28 00:46:00,0.0,1.94332,0.00036,396.757,0.038,0.6045,0.0042,140.000,45.000,31586.41537,1.95513,399.696,34.126,45.068,45.000,0.00,0.10,-272.73,-272.79,-6,524,-935,18.9,21.5,-3.6,19.1,21.7,-3.3,5.73,1.87,-3.7,25.5
2015-09-28 00:47:00,0.0,1.94316,0.00055,396.770,0.029,0.6000,0.0034,140.002,45.000,31587.10231,1.95481,399.685,34.138,45.069,45.000,0.00,0.10,-272.74,-272.80,-7,524,-935,18.9,21.4,-3.7,19.1,21.6,-3.4,5.73,1.84,-3.7,25.5
2015-09-28 00:48:00,0.0,1.94336,0.00030,396.758,0.040,0.5995,0.0043,139.999,45.000,31589.00066,1.95505,399.674,34.164,45.068,45.000,0.00,0.10,-272.74,-272.80,-5,524,-935,18.9,21.3,-3.7,19.1,21.6,-3.4,5.73,2.14,-3.6,25.5
2015-09-28 00:49:00,0.0,1.94329,0.00033,396.788,0.033,0.5977,0.0026,139.998,45.000,31590.51727,1.95494,399.693,34.179,45.069,45.000,0.00,0.10,-272.72,-272.80,-6,524,-935,18.9,21.3,-3.8,19.1,21.5,-3.4,5.73,1.85,-3.6,25.4
2015-09-28 00:50:00,0.0,1.94314,0.00040,396.779,0.037,0.5983,0.0029,139.998,44.999,31585.81192,1.95480,399.687,34.226,45.069,45.000,0.00,0.10,-272.73,-272.79,-7,525,-935,19.0,21.2,-3.7,19.1,21.4,-3.4,5.73,1.88,-3.6,25.4
2015-09-28 00:51:00,0.0,1.94357,0.00030,396.749,0.040,0.6080,0.0058,140.001,44.999,31579.45100,1.95541,399.703,34.293,45.069,45.000,0.00,0.09,-272.74,-272.80,-6,525,-935,19.0,21.4,-3.5,19.2,21.6,-3.3,5.73,2.13,-3.6,25.5
2015-09-28 00:52:00,0.0,1.94339,0.00048,396.793,0.026,0.6012,0.0030,140.001,44.999,31566.47094,1.95511,399.717,34.364,45.068,45.000,0.00,0.10,-272.73,-272.79,-6,524,-935,19.2,21.1,-3.6,19.2,21.5,-3.3,5.73,1.76,-3.6,25.6
2015-09-28 00:53:00,0.0,1.94321,0.00033,396.771,0.037,0.6027,0.0033,140.000,44.998,31552.65041,1.95493,399.700,34.425,45.068,44.999,0.00,0.10,-272.74,-272.78,-7,524,-935,19.3,21.0,-3.6,19.3,21.4,-3.3,5.73,2.06,-3.5,25.7
2015-09-28 00:54:00,0.0,1.94337,0.00031,396.773,0.039,0.6029,0.0035,140.002,44.998,31533.83468,1.95513,399.704,34.485,45.067,44.998,0.00,0.10,-272.73,-272.80,-6,525,-934,19.3,20.9,-3.6,19.4,21.4,-3.3,5.73,1.95,-3.5,25.7
2015-09-28 00:55:00,0.0,1.94321,0.00037,396.796,0.042,0.6016,0.0053,139.999,44.999,31522.42461,1.95494,399.719,34.545,45.066,44.997,0.00,0.10,-272.73,-272.80,-6,524,-934,19.4,20.8,-3.6,19.4,21.3,-3.3,5.73,1.81,-3.5,25.7
2015-09-28 00:56:00,0.0,1.94353,0.00043,396.778,0.027,0.6028,0.0030,139.999,45.000,31521.13801,1.95524,399.708,34.562,45.066,44.997,0.00,0.10,-272.71,-272.77,-7,525,-934,19.4,20.9,-3.6,19.4,21.3,-3.3,5.73,2.14,-3.5,25.7
2015-09-28 00:57:00,0.0,1.94312,0.00032,396.724,0.032,0.6129,0.0020,140.000,45.001,31521.81341,1.95507,399.704,34.547,45.066,44.997,0.00,0.10,-272.72,-272.80,-6,525,-934,19.3,21.2,-3.4,19.4,21.5,-3.1,5.73,1.81,-3.5,25.7
2015-09-28 00:58:00,0.0,1.94318,0.00036,396.774,0.021,0.6061,0.0047,140.001,45.001,31523.40004,1.95499,399.721,34.510,45.066,44.998,0.00,0.10,-272.74,-272.79,-6,525,-934,19.3,20.9,-3.6,19.4,21.4,-3.2,5.73,1.92,-3.4,25.8
2015-09-28 00:59:00,0.0,1.94305,0.00035,396.800,0.030,0.6027,0.0022,140.001,45.001,31524.86588,1.95480,399.730,34.499,45.067,44.999,0.00,0.10,-272.73,-272.79,-7,525,-934,19.3,20.9,-3.6,19.5,21.2,-3.3,5.73,2.11,-3.5,25.8
2015-09-28 01:00:00,0.0,1.94262,0.00032,396.781,0.037,0.6001,0.0048,139.998,45.001,31527.06116,1.95432,399.698,34.497,45.068,45.000,0.00,0.10,-272.72,-272.79,-7,525,-934,19.3,20.8,-3.7,19.5,21.2,-3.3,5.73,1.75,-3.4,25.8
2015-09-28 01:01:00,0.0,1.94244,0.00043,396.777,0.055,0.6049,0.0033,139.999,45.001,31534.53491,1.95420,399.716,34.496,45.069,45.001,0.00,0.10,-272.74,-272.80,-6,525,-935,19.3,20.9,-3.6,19.5,21.2,-3.3,5.73,2.02,-3.4,25.8
2015-09-28 01:02:00,0.0,1.94264,0.00035,396.796,0.024,0.6026,0.0040,140.003,45.001,31540.95203,1.95440,399.727,34.488,45.069,45.001,0.00,0.10,-272.73,-272.80,-7,525,-935,19.3,20.8,-3.7,19.5,21.2,-3.3,5.73,2.04,-3.4,25.9
2015-09-28 01:03:00,0.0,1.94270,0.00032,396.829,0.031,0.5965,0.0027,139.999,45.000,31544.55403,1.95429,399.727,34.439,45.069,45.001,0.00,0.10,-272.72,-272.79,-7,525,-935,19.3,20.6,-3.8,19.5,21.0,-3.4,5.73,1.75,-3.4,25.9
2015-09-28 01:04:00,0.0,1.94278,0.00041,396.832,0.030,0.6027,0.0055,140.003,45.000,31551.33818,1.95454,399.762,34.439,45.070,45.001,0.00,0.10,-272.74,-272.79,-6,525,-935,19.3,20.8,-3.7,19.5,21.1,-3.4,5.73,2.07,-3.4,25.8
2015-09-28 01:05:00,0.0,1.94297,0.00031,396.813,0.020,0.6060,0.0031,140.000,45.000,31555.13006,1.95476,399.761,34.443,45.070,45.001,0.00,0.10,-272.73,-272.80,-6,525,-935,19.3,21.0,-3.6,19.5,21.2,-3.3,5.73,1.98,-3.3,25.9
2015-09-28 01:06:00,0.0,1.94291,0.00043,396.839,0.038,0.6037,0.0031,139.999,45.000,31560.45587,1.95468,399.773,34.477,45.070,45.001,0.00,0.10,-272.73,-272.79,-7,525,-935,19.3,20.9,-3.6,19.5,21.2,-3.3,5.73,1.76,-3.3,25.9
2015-09-28 01:07:00,0.0,1.94273,0.00033,396.809,0.029,0.6085,0.0025,140.000,45.000,31565.90322,1.95456,399.768,34.482,45.070,45.001,0.00,0.10,-272.73,-272.79,-7,525,-935,19.3,21.0,-3.6,19.5,21.2,-3.3,5.73,2.12,-3.3,25.9
2015-09-28 01:08:00,0.0,1.94251,0.00046,396.830,0.028,0.6073,0.0034,140.000,45.000,31571.22508,1.95433,399.782,34.503,45.069,45.001,0.00,0.10,-272.73,-272.80,-6,525,-935,19.3,20.9,-3.6,19.5,21.2,-3.3,5.73,1.90,-3.3,26.0
2015-09-28 01:09:00,0.0,1.94264,0.00043,396.825,0.028,0.6055,0.0044,140.002,45.000,31576.66165,1.95443,399.768,34.504,45.069,45.001,0.00,0.10,-272.73,-272.78,-7,525,-935,19.4,20.9,-3.6,19.5,21.1,-3.3,5.73,1.81,-3.2,26.0
2015-09-28 01:10:00,0.0,1.94268,0.00040,396.830,0.032,0.6062,0.0061,140.002,45.000,31579.16499,1.95450,399.779,34.536,45.069,45.001,0.00,0.10,-272.74,-272.79,-7,525,-935,19.4,20.8,-3.6,19.5,21.2,-3.3,5.73,2.14,-3.2,26.0
2015-09-28 01:11:00,0.0,1.94234,0.00037,396.837,0.035,0.6003,0.0045,140.000,45.000,31583.27953,1.95403,399.755,34.555,45.069,45.001,0.00,0.10,-272.73,-272.80,-6,525,-935,19.4,20.7,-3.7,19.5,20.9,-3.4,5.73,1.81,-3.2,26.0
2015-09-28 01:12:00,0.0,1.94233,0.00035,396.796,0.037,0.6070,0.0029,140.002,45.000,31589.25202,1.95412,399.748,34.564,45.069,45.000,0.00,0.10,-272.73,-272.79,-7,525,-935,19.4,20.9,-3.6,19.5,21.1,-3.4,5.73,1.92,-3.2,26.0
2015-09-28 01:13:00,0.0,1.94236,0.00032,396.783,0.039,0.6095,0.0041,140.002,45.001,31593.51405,1.95425,399.747,34.595,45.069,45.000,0.00,0.10,-272.73,-272.79,-7,525,-935,19.3,21.0,-3.6,19.5,21.2,-3.3,5.73,2.10,-3.1,26.0
2015-09-28 01:14:00,0.0,1.94242,0.00042,396.793,0.048,0.6136,0.0045,139.999,45.000,31594.72823,1.95437,399.776,34.625,45.069,45.000,0.00,0.10,-272.72,-272.79,-6,525,-935,19.4,21.1,-3.5,19.6,21.2,-3.2,5.73,1.75,-3.1,26.1
2015-09-28 01:15:00,0.0,1.94211,0.00051,396.816,0.034,0.6096,0.0058,140.000,45.000,31596.99744,1.95401,399.781,34.638,45.068,45.000,0.00,0.10,-272.74,-272.80,-6,525,-935,19.4,20.9,-3.5,19.6,21.3,-3.2,5.73,2.04,-3.1,26.0
2015-09-28 01:16:00,0.0,1.94169,0.00031,396.799,0.035,0.6061,0.0028,140.004,45.000,31603.13272,1.95349,399.747,34.678,45.068,45.000,0.00,0.10,-272.73,-272.79,-7,525,-935,19.5,20.8,-3.6,19.6,21.1,-3.3,5.73,1.99,-3.1,26.1
2015-09-28 01:17:00,0.0,1.94163,0.00039,396.792,0.041,0.6060,0.0037,140.000,45.000,31604.71986,1.95342,399.738,34.688,45.068,45.000,0.00,0.10,-272.73,-272.79,-6,525,-935,19.5,20.8,-3.6,19.6,21.0,-3.3,5.73,1.76,-3.1,26.1
2015-09-28 01:18:00,0.0,1.94191,0.00046,396.745,0.026,0.6108,0.0032,140.002,45.000,31606.12561,1.95379,399.715,34.691,45.068,45.000,0.00,0.10,-272.74,-272.80,-6,525,-935,19.5,20.9,-3.5,19.6,21.1,-3.2,5.73,2.13,-3.0,26.1
2015-09-28 01:19:00,0.0,1.94189,0.00041,396.758,0.030,0.6099,0.0033,140.000,45.000,31607.00180,1.95379,399.724,34.708,45.068,45.000,0.00,0.10,-272.73,-272.80,-8,525,-935,19.5,20.9,-3.5,19.6,21.1,-3.2,5.73,1.83,-3.0,26.1
2015-09-28 01:20:00,0.0,1.94166,0.00032,396.733,0.037,0.6038,0.0039,139.999,45.001,31609.93079,1.95340,399.668,34.737,45.068,45.000,0.00,0.10,-272.73,-272.78,-7,526,-935,19.5,20.7,-3.7,19.7,21.0,-3.3,5.73,1.91,-3.0,26.1
2015-09-28 01:21:00,0.0,1.94119,0.00044,396.700,0.031,0.6065,0.0052,140.000,45.001,31612.37611,1.95301,399.647,34.750,45.068,45.000,0.00,0.10,-272.73,-272.79,-6,525,-935,19.5,20.7,-3.6,19.7,20.9,-3.3,5.73,2.09,-3.0,26.2
2015-09-28 01:22:00,0.0,1.94134,0.00030,396.712,0.029,0.6068,0.0027,140.001,45.001,31615.84835,1.95314,399.662,34.752,45.069,45.000,0.00,0.10,-272.73,-272.80,-8,525,-935,19.5,20.7,-3.6,19.7,20.9,-3.3,5.73,1.74,-3.0,26.2
2015-09-28 01:23:00,0.0,1.94131,0.00043,396.696,0.029,0.6080,0.0046,140.002,45.000,31618.32957,1.95314,399.651,34.774,45.069,45.000,0.00,0.10,-272.74,-272.79,-6,526,-935,19.5,20.8,-3.5,19.7,20.9,-3.3,5.73,2.08,-3.0,26.2
2015-09-28 01:24:00,0.0,1.94141,0.00038,396.702,0.050,0.6070,0.0043,140.000,45.000,31617.94125,1.95322,399.653,34.799,45.069,45.000,0.00,0.10,-272.73,-272.80,-6,525,-935,19.6,20.6,-3.6,19.7,21.0,-3.3,5.73,1.91,-3.0,26.2
2015-09-28 01:25:00,0.0,1.94168,0.00028,396.719,0.035,0.6069,0.0060,140.000,45.001,31620.46803,1.95349,399.669,34.796,45.068,45.000,0.00,0.10,-272.73,-272.79,-8,526,-935,19.6,20.6,-3.6,19.7,20.8,-3.4,5.73,1.85,-3.0,26.1
2015-09-28 01:26:00,0.0,1.94163,0.00042,396.749,0.030,0.6031,0.0035,139.998,45.000,31621.71402,1.95336,399.680,34.801,45.069,45.000,0.00,0.10,-272.73,-272.80,-7,526,-935,19.6,20.5,-3.6,19.7,20.8,-3.4,5.73,2.11,-3.0,26.2
2015-09-28 01:27:00,0.0,1.94166,0.00040,396.731,0.033,0.6064,0.0036,140.000,45.000,31626.36635,1.95344,399.678,34.817,45.069,45.000,0.00,0.10,-272.72,-272.79,-6,526,-935,19.6,20.6,-3.6,19.7,20.8,-3.3,5.73,1.74,-2.9,26.2
2015-09-28 01:28:00,0.0,1.94176,0.00037,396.695,0.043,0.6127,0.0036,139.999,45.000,31626.01546,1.95370,399.675,34.834,45.069,45.000,0.00,0.10,-272.74,-272.80,-7,526,-935,19.6,20.8,-3.5,19.7,21.0,-3.3,5.73,2.07,-2.9,26.2
2015-09-28 01:29:00,0.0,1.94168,0.00050,396.688,0.030,0.6107,0.0069,140.000,45.000,31628.46025,1.95361,399.659,34.866,45.068,45.000,0.00,0.10,-272.73,-272.80,-6,526,-935,19.6,20.8,-3.5,19.7,21.1,-3.2,5.73,1.93,-2.9,26.3
2015-09-28 01:30:00,0.0,1.94115,0.00042,396.710,0.032,0.6082,0.0048,139.999,45.000,31626.89647,1.95300,399.665,34.868,45.068,45.000,0.00,0.10,-272.73,-272.79,-6,526,-935,19.6,20.6,-3.6,19.7,20.9,-3.3,5.73,1.82,-2.9,26.2
2015-09-28 01:31:00,0.0,1.94127,0.00037,396.744,0.029,0.6009,0.0038,140.000,45.000,31630.32948,1.95296,399.664,34.876,45.068,45.000,0.00,0.10,-272.74,-272.80,-8,526,-935,19.6,20.4,-3.8,19.7,20.6,-3.4,5.73,2.13,-2.9,26.2
2015-09-28 01:32:00,0.0,1.94097,0.00045,396.751,0.032,0.5941,0.0056,140.002,45.000,31630.70564,1.95250,399.639,34.875,45.068,45.000,0.00,0.10,-272.73,-272.80,-7,526,-935,19.6,20.1,-3.9,19.7,20.5,-3.5,5.73,1.75,-2.9,26.3
2015-09-28 01:33:00,0.0,1.94148,0.00029,396.752,0.026,0.6018,0.0072,140.002,45.000,31631.20184,1.95319,399.675,34.875,45.068,45.000,0.00,0.10,-272.73,-272.79,-6,526,-935,19.6,20.3,-3.7,19.8,20.5,-3.5,5.73,2.03,-2.9,26.3
2015-09-28 01:34:00,0.0,1.94188,0.00036,396.772,0.024,0.6065,0.0049,139.999,45.000,31630.55854,1.95369,399.722,34.887,45.068,45.000,0.00,0.10,-272.73,-272.79,-8,526,-935,19.6,20.5,-3.6,19.8,20.7,-3.3,5.73,1.97,-2.9,26.3
2015-09-28 01:35:00,0.0,1.94178,0.00040,396.787,0.027,0.6031,0.0039,140.003,45.000,31630.67590,1.95351,399.718,34.917,45.069,45.000,0.00,0.10,-272.74,-272.79,-7,526,-935,19.6,20.4,-3.7,19.8,20.6,-3.4,5.73,1.78,-2.9,26.3
2015-09-28 01:36:00,0.0,1.94211,0.00040,396.761,0.043,0.6126,0.0032,140.000,45.000,31630.92796,1.95405,399.739,34.934,45.069,45.000,0.00,0.10,-272.73,-272.79,-6,526,-935,19.7,20.7,-3.5,19.8,20.8,-3.3,5.73,2.13,-2.9,26.3
2015-09-28 01:37:00,0.0,1.94147,0.00036,396.744,0.038,0.6131,0.0037,140.001,45.000,31632.64954,1.95341,399.725,34.947,45.068,45.000,0.00,0.10,-272.73,-272.79,-8,526,-935,19.7,20.7,-3.5,19.8,20.9,-3.2,5.73,1.77,-2.8,26.3
2015-09-28 01:38:00,0.0,1.94157,0.00046,396.754,0.048,0.6085,0.0056,140.001,45.000,31633.52379,1.95339,399.713,34.951,45.068,45.000,0.00,0.10,-272.74,-272.80,-7,526,-935,19.7,20.5,-3.6,19.9,20.8,-3.2,5.73,2.00,-2.8,26.4
2015-09-28 01:39:00,0.0,1.94131,0.00048,396.801,0.039,0.6002,0.0073,139.999,45.000,31633.12710,1.95300,399.718,34.972,45.068,45.000,0.00,0.10,-272.73,-272.79,-7,525,-935,19.7,20.2,-3.8,19.9,20.5,-3.4,5.73,1.98,-2.8,26.4
2015-09-28 01:40:00,0.0,1.94113,0.00039,396.797,0.035,0.5970,0.0038,139.999,45.000,31633.28843,1.95276,399.699,34.988,45.068,45.000,0.00,0.10,-272.73,-272.79,-8,526,-935,19.7,20.0,-3.9,19.9,20.4,-3.5,5.73,1.79,-2.8,26.4
2015-09-28 01:41:00,0.0,1.94173,0.00036,396.829,0.033,0.5963,0.0031,140.002,45.000,31633.04255,1.95333,399.728,34.999,45.068,45.000,0.00,0.10,-272.74,-272.79,-7,526,-935,19.7,20.0,-3.9,19.9,20.3,-3.6,5.73,2.13,-2.8,26.4
2015-09-28 01:42:00,0.0,1.94186,0.00033,396.838,0.047,0.5952,0.0037,140.003,45.000,31635.17175,1.95342,399.728,35.004,45.068,45.000,0.00,0.10,-272.73,-272.80,-7,526,-935,19.7,20.0,-3.9,19.9,20.2,-3.6,5.73,1.74,-2.7,26.4
2015-09-28 01:43:00,0.0,1.94181,0.00034,396.786,0.028,0.6028,0.0032,140.002,45.000,31636.23199,1.95357,399.717,35.003,45.068,45.000,0.00,0.10,-272.73,-272.79,-8,526,-935,19.8,20.2,-3.7,19.9,20.4,-3.4,5.73,2.08,-2.7,26.4
2015-09-28 01:44:00,0.0,1.94128,0.00050,396.811,0.041,0.5944,0.0073,139.997,45.000,31633.11672,1.95286,399.699,35.004,45.068,45.000,0.00,0.10,-272.73,-272.80,-6,526,-935,19.8,19.9,-3.9,19.9,20.3,-3.5,5.73,1.87,-2.7,26.4
2015-09-28 01:45:00,0.0,1.94202,0.00037,396.814,0.027,0.6021,0.0040,139.999,45.000,31629.27229,1.95371,399.740,35.005,45.068,45.000,0.00,0.10,-272.74,-272.80,-8,525,-935,19.8,20.2,-3.7,19.9,20.3,-3.5,5.73,1.90,-2.7,26.4